Location: Jetmore Motorplex
(37.9889°N, 99.8876°W)
Time: 04:08:28
(UTC+00:00)

CZ-4C R/B - Pass Details

Date: 17 February 2020
Orbit: 641 x 1361 km, 63.4° (Epoch: 09 April)

Event Time Altitude Azimuth Distance (km) Brightness Sun altitude
Exits shadow 10:30:24 16° 9° (N) 2,089 4.4 -35.4°
Drops below altitude 10° 10:31:48 10° 17° (NNE) 2,550 5.0 -35.2°
Sets 10:34:49 0° 27° (NNE) 3,624 6.0 -34.6°
